FW4685 Weather Reports


Display with metric or nautical units.
time (UTC)temp
F
wind
direction
speed
MPH
gust
MPH
rain 1hr
in
rain 24hr
in
rain mn
in
humidity
%
barometer
mb
20260902091029 67 212 0.0 2.0 0.00 0.00 0.00 79 1022.0
20260902090105 67 125 0.0 2.0 0.00 0.00 0.00 78 1021.9
20260902085017 67 189 0.0 2.0 0.00 0.00 0.00 78 1021.8
20260902084030 67 202 0.0 2.0 0.00 0.00 0.00 77 1021.8
20260902083041 66 3 0.0 5.0 0.00 0.00 0.00 77 1021.8
20260902082015 66 109 0.0 5.0 0.00 0.00 0.00 78 1021.6
20260902081047 65 201 0.0 5.0 0.00 0.00 0.00 78 1021.6
20260902080039 65 306 0.0 0.0 0.00 0.00 0.00 80 1021.4
20260902075015 64 195 0.0 0.0 0.00 0.00 0.00 81 1021.6
20260902074025 64 201 0.0 0.0 0.00 0.00 0.00 82 1021.4
20260902073031 63 319 0.0 0.0 0.00 0.00 0.00 83 1021.4
20260902072026 63 276 0.0 0.0 0.00 0.00 0.00 84 1021.4
20260902071019 62 241 0.0 0.0 0.00 0.00 0.00 85 1021.4
20260902070029 61 341 0.0 0.0 0.00 0.00 0.00 86 1021.4
20260902065026 61 336 0.0 0.0 0.00 0.00 0.00 86 1021.3
20260902064019 60 343 0.0 0.0 0.00 0.00 0.00 87 1021.3
20260902063015 60 328 0.0 0.0 0.00 0.00 0.00 87 1021.2
20260902062025 59 326 0.0 0.0 0.00 0.00 0.00 88 1021.1
20260902061019 59 338 0.0 0.0 0.00 0.00 0.00 89 1021.2
20260902060025 59 342 0.0 0.0 0.00 0.00 0.00 89 1021.2
20260902055020 59 347 0.0 0.0 0.00 0.00 0.00 89 1021.2
20260902054030 59 347 0.0 0.0 0.00 0.00 0.00 89 1021.1
20260902053026 59 348 0.0 0.0 0.00 0.00 0.00 89 1021.2
20260902052019 59 348 0.0 0.0 0.00 0.00 0.00 89 1021.0
20260902051518 59 349 0.0 0.0 0.00 0.00 0.00 89 1021.1
20260902051031 59 348 0.0 0.0 0.00 0.00 0.00 89 1021.0
20260902050021 59 350 0.0 0.0 0.00 0.00 0.00 88 1021.0
20260902045016 59 349 0.0 0.0 0.00 0.00 0.00 88 1021.2
20260902044030 59 349 0.0 0.0 0.00 0.00 0.00 88 1021.2
20260902043016 59 349 0.0 0.0 0.00 0.00 0.00 88 1021.1
20260902042026 59 348 0.0 0.0 0.00 0.00 0.00 87 1021.3
20260902041038 59 348 0.0 0.0 0.00 0.00 0.00 87 1021.3
20260902040031 59 348 0.0 0.0 0.00 0.00 0.00 87 1021.0
20260902035026 60 350 0.0 0.0 0.00 0.00 0.00 87 1021.2
20260902034018 60 351 0.0 0.0 0.00 0.00 0.00 86 1021.3
20260902033030 60 1 0.0 0.0 0.00 0.00 0.00 86 1021.3
20260902032026 60 3 0.0 0.0 0.00 0.00 0.00 86 1021.2
20260902031019 60 344 0.0 0.0 0.00 0.00 0.00 86 1021.3
20260902030030 60 357 0.0 0.0 0.00 0.00 0.00 85 1021.3
20260902025046 60 355 0.0 0.0 0.00 0.00 0.00 85 1021.3
20260902024016 60 344 0.0 0.0 0.00 0.00 0.00 84 1021.3
20260902023027 60 2 0.0 0.0 0.00 0.00 0.00 84 1021.2
20260902022019 60 7 0.0 0.0 0.00 0.00 0.00 84 1021.2
20260902021030 60 355 0.0 0.0 0.00 0.00 0.00 84 1021.4
20260902020047 60 2 0.0 0.0 0.00 0.00 0.00 84 1021.3
20260902015019 60 27 0.0 0.0 0.00 0.00 0.00 84 1021.5
20260902014051 60 36 0.0 0.0 0.00 0.00 0.00 83 1021.6
20260902013026 60 50 0.0 0.0 0.00 0.00 0.00 83 1021.7
20260902012018 60 58 0.0 0.0 0.00 0.00 0.00 82 1021.8
20260902011110 60 83 0.0 0.0 0.00 0.00 0.00 82 1021.8
20260902010026 61 79 0.0 0.0 0.00 0.00 0.00 82 1021.9
20260902005019 61 37 0.0 0.0 0.00 0.00 0.00 81 1021.9
20260902004026 61 98 0.0 0.0 0.00 0.00 0.00 81 1021.9
20260902003159 61 132 0.0 0.0 0.00 0.00 0.00 81 1021.9
20260902002030 61 126 0.0 0.0 0.00 0.00 0.00 81 1021.8
20260902001027 61 139 0.0 0.0 0.00 0.00 0.00 81 1021.9
20260902000018 61 181 0.0 0.0 0.00 0.00 0.00 81 1021.8
20260901235029 61 98 0.0 0.0 0.00 0.00 0.00 81 1021.9
20260901234026 61 112 0.0 0.0 0.00 0.00 0.00 81 1022.0
20260901233017 61 56 0.0 0.0 0.00 0.00 0.00 81 1022.1
20260901232030 61 43 0.0 0.0 0.00 0.00 0.00 80 1022.1
20260901231026 61 55 0.0 0.0 0.00 0.00 0.00 80 1021.9
20260901230018 61 81 0.0 0.0 0.00 0.00 0.00 79 1021.8
20260901225030 62 115 0.0 0.0 0.00 0.00 0.00 78 1022.0
20260901224026 62 326 0.0 0.0 0.00 0.00 0.00 78 1022.0
20260901223018 62 85 0.0 0.0 0.00 0.00 0.00 78 1022.1
20260901222031 62 63 0.0 0.0 0.00 0.00 0.00 78 1022.2
20260901221025 62 47 0.0 0.0 0.00 0.00 0.00 77 1022.1
20260901220039 62 51 0.0 0.0 0.00 0.00 0.00 77 1022.2
20260901215030 62 40 0.0 0.0 0.00 0.00 0.00 77 1022.0
20260901214026 62 101 0.0 0.0 0.00 0.00 0.00 76 1022.1
20260901213039 62 242 0.0 0.0 0.00 0.00 0.00 76 1022.1
20260901212030 62 71 0.0 0.0 0.00 0.00 0.00 76 1022.2
20260901211028 63 66 0.0 0.0 0.00 0.00 0.00 75 1022.1
20260901210019 63 78 0.0 0.0 0.00 0.00 0.00 74 1022.1
20260901205030 64 43 0.0 0.0 0.00 0.00 0.00 74 1022.0
20260901204025 64 93 0.0 0.0 0.00 0.00 0.00 73 1022.1
20260901203052 64 61 0.0 0.0 0.00 0.00 0.00 72 1022.0
20260901202046 65 266 0.0 2.0 0.00 0.00 0.00 71 1022.0
20260901201027 65 330 0.0 2.0 0.00 0.00 0.00 71 1021.9
20260901200018 65 37 0.0 2.0 0.00 0.00 0.00 70 1021.8
20260901195030 66 287 0.0 5.0 0.00 0.00 0.00 69 1021.8
20260901194025 66 346 0.0 2.0 0.00 0.00 0.00 68 1021.6
20260901193019 67 167 0.0 5.0 0.00 0.00 0.00 67 1021.6
20260901192031 67 279 0.0 5.0 0.00 0.00 0.00 67 1021.7
20260901191026 67 195 0.0 2.0 0.00 0.00 0.00 67 1021.6
20260901190018 67 280 0.0 5.0 0.00 0.00 0.00 67 1021.6
20260901185051 67 213 0.0 2.0 0.00 0.00 0.00 67 1021.4
20260901184025 68 240 0.0 2.0 0.00 0.00 0.00 66 1021.3
20260901183018 68 156 0.0 5.0 0.00 0.00 0.00 65 1021.3
20260901182028 69 78 0.0 5.0 0.00 0.00 0.00 64 1021.5
20260901181018 70 249 1.0 5.0 0.00 0.00 0.00 63 1021.4
20260901175531 71 201 1.0 7.0 0.00 0.00 0.00 61 1021.3
20260901174525 71 219 1.0 5.0 0.00 0.00 0.00 59 1021.2
20260901173516 72 200 0.0 5.0 0.00 0.00 0.00 57 1021.2
20260901172525 72 173 0.0 2.0 0.00 0.00 0.00 56 1021.3
20260901171526 73 234 0.0 2.0 0.00 0.00 0.00 52 1021.1
20260901170538 74 102 0.0 2.0 0.00 0.00 0.00 50 1021.2
20260901165526 75 46 0.0 5.0 0.00 0.00 0.00 47 1021.1
20260901164518 75 332 1.0 7.0 0.00 0.00 0.00 45 1021.0
20260901163526 75 323 1.0 7.0 0.00 0.00 0.00 41 1021.0
20260901162532 74 355 1.0 7.0 0.00 0.00 0.00 43 1021.0
20260901161525 74 329 1.0 5.0 0.00 0.00 0.00 44 1021.0
20260901160552 75 282 1.0 7.0 0.00 0.00 0.00 43 1021.0
20260901155517 76 327 0.0 5.0 0.00 0.00 0.00 43 1021.1
20260901154530 76 148 0.0 2.0 0.00 0.00 0.00 42 1021.2
20260901153524 77 21 0.0 0.0 0.00 0.00 0.00 42 1021.2
20260901152518 77 36 0.0 2.0 0.00 0.00 0.00 40 1021.5
20260901151531 78 314 1.0 10.0 0.00 0.00 0.00 40 1021.3
20260901150525 78 344 1.0 5.0 0.00 0.00 0.00 42 1021.3
20260901145519 77 228 1.0 5.0 0.00 0.00 0.00 38 1021.4
20260901144528 76 348 1.0 12.0 0.00 0.00 0.00 40 1021.3
20260901143525 76 323 1.0 7.0 0.00 0.00 0.00 44 1021.4
20260901142518 77 343 1.0 7.0 0.00 0.00 0.00 42 1021.6
20260901141545 78 333 1.0 10.0 0.00 0.00 0.00 42 1021.5
20260901140519 79 334 2.0 10.0 0.00 0.00 0.00 41 1021.5
20260901135530 79 306 2.0 7.0 0.00 0.00 0.00 39 1021.6
20260901134524 79 119 1.0 5.0 0.00 0.00 0.00 40 1021.6
20260901133519 78 175 1.0 5.0 0.00 0.00 0.00 40 1021.7
20260901132531 78 125 1.0 7.0 0.00 0.00 0.00 41 1021.8
20260901131520 78 225 1.0 5.0 0.00 0.00 0.00 41 1021.8
20260901130530 77 96 1.0 7.0 0.00 0.00 0.00 41 1022.0
20260901125524 76 346 1.0 7.0 0.00 0.00 0.00 42 1022.0
20260901124539 75 206 1.0 7.0 0.00 0.00 0.00 45 1022.1
20260901123528 75 246 1.0 10.0 0.00 0.00 0.00 46 1022.1
20260901122525 74 268 1.0 5.0 0.00 0.00 0.00 49 1022.2
20260901121532 74 258 1.0 10.0 0.00 0.00 0.00 50 1022.2
20260901120525 74 200 0.0 5.0 0.00 0.00 0.00 51 1022.2
20260901115540 74 76 0.0 5.0 0.00 0.00 0.00 50 1022.3
20260901114525 73 233 1.0 7.0 0.00 0.00 0.00 51 1022.4
20260901113518 73 161 1.0 5.0 0.00 0.00 0.00 51 1022.3
20260901112529 74 211 1.0 7.0 0.00 0.00 0.00 52 1022.3
20260901111516 74 219 1.0 5.0 0.00 0.00 0.00 50 1022.4
20260901110530 74 231 1.0 5.0 0.00 0.00 0.00 48 1022.4
20260901105520 74 198 1.0 10.0 0.00 0.00 0.00 47 1022.5
20260901104532 73 180 1.0 7.0 0.00 0.00 0.00 49 1022.5
20260901103532 73 118 0.0 2.0 0.00 0.00 0.00 48 1022.5
20260901102519 73 18 1.0 5.0 0.00 0.00 0.00 48 1022.6
20260901101529 72 145 1.0 5.0 0.00 0.00 0.00 47 1022.8
20260901100525 71 313 1.0 7.0 0.00 0.00 0.00 49 1022.9
20260901095516 70 99 1.0 5.0 0.00 0.00 0.00 50 1022.9
20260901094529 69 344 0.0 5.0 0.00 0.00 0.00 51 1023.1
20260901093544 68 212 0.0 2.0 0.00 0.00 0.00 58 1023.1
20260901092517 67 143 0.0 2.0 0.00 0.00 0.00 59 1023.1